"Pseudo-MPEC" for P11CrrJ

Created 2022 Dec 10 12:22:13 UT using Find_Orb

Click here for an explanation of pseudo-MPECs

 
 Astrometry: 
     P11CrrJ  C2022 11 25.47177 10 44 09.87 +44 55 07.6    ~C40b 21.2 GVNEOCPG96
     P11CrrJ  C2022 11 25.48227 10 44 11.58 +44 55 15.5    ~C40b 21.5 GVNEOCPG96
     P11CrrJ  C2022 11 25.48753 10 44 12.43 +44 55 18.7    ~C40b 21.0 GVNEOCPG96
     P11CrrJ* C2022 12 02g]7`=UXyAstrometryuY.6hAuKw%t;F:\Kb$redacted;ZclickcF51
     P11CrrJ  C2022 12 02Iwkherej[(*R8bR3u`#c\yi3$c)JWeP?C0]lbN6w0AO]'5YBmv$lF51
     P11CrrJ  C2022 12 02e7J(@N`_XY]CpO+x@(/;1eforx9!15nexplanation.m:M^dVYlpF51
     P11CrrJ  C2022 12 10.44423511 22 13.235+47 44 05.51   ~CABb 21.2 GVNEOCPH01
     P11CrrJ  C2022 12 10.45281011 22 14.463+47 44 11.88   ~CABb 21.2 GVNEOCPH01
     P11CrrJ  C2022 12 10.45836211 22 15.251+47 44 15.88   ~CABb 20.9 GVNEOCPH01
     P11CrrJ  C2022 12 10.47013311 22 16.921+47 44 24.56   ~CABb 21.1 GVNEOCPH01

Station data:
(F51) Pan-STARRS 1, Haleakala  (N20.707234 W156.255910)  US/Hawaii.
   Observers J. Bulger, T. Lowe, A. Schultz, M. Willman. Measurers K.
   Chambers, S. Chastel, T. de Boer, L. Denneau, J. Fairlamb, H. Flewelling,
   M. Huber, C.-C. Lin, E. Magnier, Y. Ramanjooloo, R. Wainscoat, R. Weryk.
   1.8-m Ritchey-Chrétien + CCD.
(G96) Mt. Lemmon Survey  (N32.442751 W110.788720)  US/Arizona.  Observers T.
   A. Pruyne, B. M. Africano, E. J. Christensen, G. A. Farneth, D. C. Fuls,
   A. R. Gibbs, A. D. Grauer, H. Gröller, J. A. Johnson, R. A. Kowalski, S.
   M. Larson, G. J. Leonard, D. Rankin, R. L. Seaman, F. C. Shelly, K. W.
   Wierzchoś. 1.5-m reflector + 10K CCD.
(H01) Magdalena Ridge Observatory, Socorro  (N33.984833 W107.189333)  US/New
   Mexico.  Observers W. H. Ryan, E. V. Ryan. Measurer W. H. Ryan. 2.4-m
   f/8.9 reflector + CCD.

Orbital elements:  P11CrrJ
   Perihelion 2022 Nov 19.12832 +/- 0.202 TT =  3:04:46 (JD 2459902.62832)
Epoch 2022 Dec 10.0 TT = JDT 2459923.5                           AutoNEOCP
M   4.96620728 +/- 0.046            (J2000 ecliptic)
n   0.23793996 +/- 0.000956         Peri.   53.30001 +/- 0.09
a   2.57923623 +/- 0.0069           Node    57.86128 +/- 0.045
e   0.2559994 +/- 0.00165           Incl.   32.14661 +/- 0.017
P   4.14                   H 17.83  G  0.15   U  8.1
q 1.91895330 +/- 0.000946    Q 3.23951916 +/- 0.0129
From 10 observations 2022 Nov. 25-Dec. 10; mean residual 0".25
Residuals in arcseconds: 
221125 G96  .59-  .66-    221202 F51  .02+  .01-    221210 H01  .01+  .03-    
221125 G96  .15+  .43+    221202 F51  .02-  .04+    221210 H01  .04-  .02+    
221125 G96  .45+  .23+    221210 H01  .01-  .03-    
221202 F51  .00   .02-    221210 H01  .04+  .04+    

Ephemerides (geocentric):
Date (UTC) HH   RA             Dec           delta  r     elong  mag " sig PA
---- --------  ------------   ------------  ------ ------ -----  --- --------
2022 12 10 12  11 22 21.006   +47 44 45.07  1.4247 1.9236 104.5 21.4 .100 157
2022 12 10 13  11 22 27.047   +47 45 15.09  1.4244 1.9237 104.5 21.4 .104 157
2022 12 10 14  11 22 33.087   +47 45 45.13  1.4242 1.9237 104.5 21.4 .109 157
2022 12 10 15  11 22 39.124   +47 46 15.17  1.4239 1.9237 104.5 21.4 .113 157
2022 12 10 16  11 22 45.160   +47 46 45.22  1.4237 1.9237 104.5 21.4 .117 157
2022 12 10 17  11 22 51.193   +47 47 15.28  1.4235 1.9237 104.6 21.4 .121 157
2022 12 10 18  11 22 57.224   +47 47 45.36  1.4232 1.9237 104.6 21.4 .126 157
2022 12 10 19  11 23 03.253   +47 48 15.44  1.4230 1.9238 104.6 21.4 .130 157
2022 12 10 20  11 23 09.280   +47 48 45.53  1.4228 1.9238 104.6 21.4 .134 157
2022 12 10 21  11 23 15.305   +47 49 15.64  1.4225 1.9238 104.6 21.4 .139 157
2022 12 10 22  11 23 21.328   +47 49 45.75  1.4223 1.9238 104.6 21.4 .143 157
2022 12 10 23  11 23 27.348   +47 50 15.88  1.4221 1.9238 104.7 21.4 .147 157
2022 12 11 00  11 23 33.367   +47 50 46.01  1.4218 1.9239 104.7 21.4 .152 157
2022 12 11 01  11 23 39.383   +47 51 16.16  1.4216 1.9239 104.7 21.4 .156 157
2022 12 11 02  11 23 45.397   +47 51 46.31  1.4213 1.9239 104.7 21.4 .161 157
2022 12 11 03  11 23 51.410   +47 52 16.48  1.4211 1.9239 104.7 21.4 .165 157
2022 12 11 04  11 23 57.420   +47 52 46.66  1.4209 1.9239 104.8 21.4 .170 157
2022 12 11 05  11 24 03.428   +47 53 16.84  1.4206 1.9239 104.8 21.4 .174 157
2022 12 11 06  11 24 09.433   +47 53 47.04  1.4204 1.9240 104.8 21.4 .179 157
2022 12 11 07  11 24 15.437   +47 54 17.25  1.4202 1.9240 104.8 21.4 .184 157
2022 12 11 08  11 24 21.439   +47 54 47.47  1.4199 1.9240 104.8 21.3 .188 157
2022 12 11 09  11 24 27.438   +47 55 17.70  1.4197 1.9240 104.9 21.3 .193 157
2022 12 11 10  11 24 33.435   +47 55 47.94  1.4195 1.9240 104.9 21.3 .198 157
2022 12 11 11  11 24 39.430   +47 56 18.18  1.4192 1.9241 104.9 21.3 .202 157
2022 12 11 12  11 24 45.423   +47 56 48.44  1.4190 1.9241 104.9 21.3 .207 157
2022 12 11 13  11 24 51.414   +47 57 18.71  1.4188 1.9241 104.9 21.3 .212 157
2022 12 11 14  11 24 57.403   +47 57 49.00  1.4185 1.9241 104.9 21.3 .217 157
2022 12 11 15  11 25 03.389   +47 58 19.29  1.4183 1.9241 105.0 21.3 .222 157
2022 12 11 16  11 25 09.373   +47 58 49.59  1.4181 1.9242 105.0 21.3 .226 157
2022 12 11 17  11 25 15.356   +47 59 19.90  1.4178 1.9242 105.0 21.3 .231 157
2022 12 11 18  11 25 21.335   +47 59 50.22  1.4176 1.9242 105.0 21.3 .236 157
2022 12 11 19  11 25 27.313   +48 00 20.55  1.4174 1.9242 105.0 21.3 .241 157
2022 12 11 20  11 25 33.289   +48 00 50.90  1.4171 1.9242 105.1 21.3 .246 157
2022 12 11 21  11 25 39.262   +48 01 21.25  1.4169 1.9243 105.1 21.3 .251 158
2022 12 11 22  11 25 45.233   +48 01 51.61  1.4167 1.9243 105.1 21.3 .256 158
2022 12 11 23  11 25 51.203   +48 02 21.99  1.4164 1.9243 105.1 21.3 .261 158
2022 12 12 00  11 25 57.169   +48 02 52.37  1.4162 1.9243 105.1 21.3 .266 158
2022 12 12 01  11 26 03.134   +48 03 22.77  1.4160 1.9243 105.1 21.3 .271 158
2022 12 12 02  11 26 09.096   +48 03 53.17  1.4158 1.9244 105.2 21.3 .276 158
2022 12 12 03  11 26 15.057   +48 04 23.59  1.4155 1.9244 105.2 21.3 .282 158
2022 12 12 04  11 26 21.015   +48 04 54.01  1.4153 1.9244 105.2 21.3 .287 158
2022 12 12 05  11 26 26.970   +48 05 24.45  1.4151 1.9244 105.2 21.3 .292 158
2022 12 12 06  11 26 32.924   +48 05 54.90  1.4148 1.9244 105.2 21.3 .297 158
2022 12 12 07  11 26 38.875   +48 06 25.35  1.4146 1.9245 105.3 21.3 .302 158
2022 12 12 08  11 26 44.825   +48 06 55.82  1.4144 1.9245 105.3 21.3 .308 158
2022 12 12 09  11 26 50.772   +48 07 26.30  1.4141 1.9245 105.3 21.3 .313 158
2022 12 12 10  11 26 56.716   +48 07 56.79  1.4139 1.9245 105.3 21.3 .318 158
2022 12 12 11  11 27 02.659   +48 08 27.29  1.4137 1.9245 105.3 21.3 .324 158